Location: Saluda
(35.2377°N, 82.3468°W)
Time: 16:45:44
(UTC+00:00)

Vanguard 2 Rocket - Visible Passes

Search period start: 26 September 2022 00:00
Search period end: 06 October 2022 00:00
Orbit: 553 x 3323 km, 32.9° (Epoch: 25 September)

Date Brightness Start Highest point End Pass type
(mag) Time Alt. Az. Time Alt. Az. Time Alt. Az.
26 Sep 7.5 08:54:20 36° ESE 08:54:20 36° ESE 08:56:44 10° E visible
27 Sep 6.5 10:03:33 29° WSW 10:05:23 46° SSW 10:09:11 10° ESE visible
28 Sep 10.4 02:13:34 10° S 02:16:27 14° S 02:16:27 14° S visible
28 Sep 7.1 09:07:01 43° SE 09:07:01 43° SE 09:09:54 10° ESE visible
29 Sep 10.3 01:14:52 10° S 01:20:12 13° SSE 01:20:12 13° SSE visible
29 Sep 10.6 03:24:28 10° SSW 03:26:00 13° SSW 03:26:00 13° SSW visible
29 Sep 9.2 08:10:30 11° E 08:10:30 11° E 08:10:39 10° E visible
29 Sep 7.0 10:16:17 22° WSW 10:18:23 31° SSW 10:21:57 10° SE visible
30 Sep 10.1 02:23:05 10° SSW 02:29:47 22° S 02:29:47 22° S visible
30 Sep 7.0 09:19:48 42° SSE 09:19:48 42° SSE 09:22:57 10° SE visible
01 Oct 10.0 01:22:28 10° S 01:33:34 22° SSE 01:33:34 22° SSE visible
01 Oct 10.4 03:35:55 10° SW 03:39:22 18° SW 03:39:22 18° SW visible
01 Oct 9.0 08:23:21 13° ESE 08:23:21 13° ESE 08:23:49 10° ESE visible
01 Oct 7.7 10:29:08 15° WSW 10:31:14 19° SSW 10:34:14 10° SSE visible
02 Oct 10.1 00:23:12 10° S 00:33:03 16° SE 00:37:22 15° SE visible
02 Oct 9.9 02:33:51 10° SW 02:43:10 30° SSW 02:43:10 30° SSW visible
02 Oct 7.4 09:32:42 31° S 09:32:42 31° S 09:35:44 10° SE visible
02 Oct 10.4 23:28:27 10° SSE 23:31:14 10° SE 23:33:55 10° SE visible
03 Oct 9.6 01:32:21 10° SSW 01:46:57 33° SSE 01:46:57 33° SSE visible
03 Oct 10.3 03:47:58 10° SW 03:52:45 21° SW 03:52:45 21° SW visible
03 Oct 8.9 08:36:18 14° SE 08:36:18 14° SE 08:36:51 10° SE visible
03 Oct 8.3 10:42:45 10° SW 10:43:53 11° SW 10:44:57 10° SSW visible
04 Oct 9.8 00:31:42 10° SSW 00:46:00 26° SE 00:50:43 23° ESE visible
04 Oct 9.7 02:45:23 10° SW 02:56:30 38° SSW 02:56:30 38° SSW visible
04 Oct 7.9 09:45:44 20° SSW 09:45:44 20° SSW 09:48:03 10° SSE visible
04 Oct 10.2 23:32:22 10° S 23:44:09 19° SE 23:54:23 10° ESE visible
05 Oct 9.3 01:43:17 10° SW 02:00:14 44° SSE 02:00:14 44° SSE visible
05 Oct 10.2 04:00:28 10° WSW 04:06:02 24° WSW 04:06:02 24° WSW visible
05 Oct 8.9 08:49:23 12° SE 08:49:23 12° SE 08:49:38 10° SE visible
